When you browse on this site, cookies collect data to enhance your experience and personalize the content and advertising you see.
Visit our Privacy Policy to learn more. By continuing to use the site, you agree to this use of cookies and data.
  • In France
  • List of Countries
  • For 7 days
  • Water Temperature
  • Satellite Maps
  • Weather Map
  • Weather Widgets
  • user-avatar
    Login

    Hourly Weather Encamp

    Today, 19 January, Saturday

    Time Temperature Precipitation Wind Pressure Humidity
    00:00 -5°C° 0 mm 0 mps 617 mmHg 72%
    01:00 -5°C° 0 mm 0 mps 617 mmHg 72%
    02:00 -6°C° 0 mm 1 mps 617 mmHg 72%
    03:00 -6°C° 0 mm 1 mps 616 mmHg 72%
    04:00 -6°C° 0 mm 1 mps 616 mmHg 72%
    05:00 -6°C° 0 mm 1 mps 616 mmHg 72%
    06:00 -6°C° 0 mm 1 mps 616 mmHg 72%
    07:00 -4°C° 0 mm 1 mps 617 mmHg 68%
    08:00 -3°C° 0 mm 0 mps 618 mmHg 65%
    09:00 -2°C° 0 mm 0 mps 618 mmHg 61%
    10:00 -1°C° 0 mm 0 mps 619 mmHg 58%
    11:00 +2°C° 0 mm 1 mps 619 mmHg 56%
    12:00 +3°C° 0 mm 1 mps 619 mmHg 53%
    13:00 +3°C° 0 mm 1 mps 619 mmHg 54%
    14:00 +2°C° 0 mm 1 mps 618 mmHg 56%
    15:00 +2°C° 0 mm 1 mps 618 mmHg 57%
    16:00 0°C° 0 mm 1 mps 617 mmHg 65%
    17:00 -1°C° 0 mm 1 mps 616 mmHg 72%
    18:00 -3°C° 0 mm 1 mps 615 mmHg 80%
    19:00 -3°C° 0 mm 1 mps 615 mmHg 79%
    20:00 -3°C° 0 mm 1 mps 615 mmHg 78%
    21:00 -3°C° 0 mm 1 mps 615 mmHg 77%
    22:00 -3°C° 0 mm 1 mps 615 mmHg 77%
    23:00 -2°C° 0 mm 1 mps 615 mmHg 77%

    Tomorrow, 20 January, Sunday

    Time Temperature Precipitation Wind Pressure Humidity
    00:00 -2°C° 0 mm 1 mps 615 mmHg 77%
    01:00 -2°C° 0 mm 1 mps 615 mmHg 77%
    02:00 -2°C° 0 mm 1 mps 615 mmHg 76%
    03:00 -2°C° 0 mm 1 mps 615 mmHg 76%
    04:00 -2°C° 0 mm 1 mps 615 mmHg 75%
    05:00 -2°C° 0 mm 1 mps 615 mmHg 73%
    06:00 -2°C° 0 mm 1 mps 615 mmHg 72%
    07:00 -1°C° 0 mm 1 mps 616 mmHg 68%
    08:00 -1°C° 0 mm 1 mps 616 mmHg 65%
    09:00 0°C° 0 mm 1 mps 617 mmHg 61%
    10:00 +1°C° 0 mm 1 mps 617 mmHg 58%
    11:00 +2°C° 0 mm 1 mps 618 mmHg 55%
    12:00 +3°C° 0 mm 1 mps 618 mmHg 52%
    13:00 +3°C° 0 mm 1 mps 618 mmHg 57%
    14:00 +1°C° 0 mm 2 mps 618 mmHg 61%
    15:00 +1°C° 0 mm 2 mps 617 mmHg 66%
    16:00 0°C° 0.1 mm 1 mps 617 mmHg 73%
    17:00 -1°C° 0.1 mm 1 mps 617 mmHg 80%
    18:00 -2°C° 0.1 mm 1 mps 617 mmHg 87%
    19:00 -2°C° 0 mm 1 mps 617 mmHg 87%
    20:00 -2°C° 0 mm 1 mps 617 mmHg 86%
    21:00 -3°C° 0 mm 1 mps 618 mmHg 85%
    22:00 -2°C° 0.3 mm 1 mps 618 mmHg 86%
    23:00 -2°C° 0.3 mm 1 mps 618 mmHg 86%

    Day after tomorrow, 21 January, Monday

    Time Temperature Precipitation Wind Pressure Humidity
    00:00 -2°C° 0.3 mm 1 mps 619 mmHg 87%
    01:00 -4°C° 0.1 mm 2 mps 619 mmHg 88%
    02:00 -4°C° 0.1 mm 2 mps 619 mmHg 89%
    03:00 -5°C° 0.1 mm 2 mps 618 mmHg 89%
    04:00 -5°C° 0.2 mm 2 mps 619 mmHg 89%
    05:00 -5°C° 0.2 mm 2 mps 619 mmHg 88%
    06:00 -5°C° 0.2 mm 2 mps 619 mmHg 88%
    07:00 -4°C° 0.2 mm 2 mps 619 mmHg 85%
    08:00 -4°C° 0.2 mm 2 mps 620 mmHg 82%
    09:00 -4°C° 0.2 mm 2 mps 620 mmHg 79%
    10:00 -3°C° 0.1 mm 2 mps 621 mmHg 75%
    11:00 -2°C° 0.1 mm 3 mps 621 mmHg 71%
    12:00 -1°C° 0.1 mm 3 mps 621 mmHg 67%
    13:00 -2°C° 0.1 mm 3 mps 621 mmHg 68%
    14:00 -2°C° 0.1 mm 3 mps 621 mmHg 69%
    15:00 -2°C° 0.1 mm 3 mps 621 mmHg 71%
    16:00 -5°C° 0 mm 3 mps 620 mmHg 76%
    17:00 -5°C° 0 mm 2 mps 620 mmHg 82%
    18:00 -6°C° 0 mm 2 mps 620 mmHg 87%
    19:00 -7°C° 0 mm 2 mps 620 mmHg 88%
    20:00 -7°C° 0 mm 2 mps 620 mmHg 89%
    21:00 -8°C° 0 mm 2 mps 620 mmHg 89%
    22:00 -8°C° 0 mm 2 mps 619 mmHg 86%
    23:00 -8°C° 0 mm 2 mps 619 mmHg 83%

    22 January, Tuesday

    Time Temperature Precipitation Wind Pressure Humidity
    00:00 -9°C° 0 mm 2 mps 619 mmHg 81%
    01:00 -9°C° 0 mm 2 mps 619 mmHg 74%
    02:00 -9°C° 0 mm 2 mps 618 mmHg 68%
    03:00 -9°C° 0 mm 2 mps 618 mmHg 62%
    04:00 -9°C° 0 mm 2 mps 617 mmHg 59%
    05:00 -9°C° 0 mm 2 mps 617 mmHg 56%
    06:00 -9°C° 0 mm 2 mps 617 mmHg 53%
    07:00 -6°C° 0 mm 1 mps 617 mmHg 50%
    08:00 -4°C° 0 mm 1 mps 617 mmHg 48%
    09:00 -2°C° 0 mm 1 mps 617 mmHg 45%
    10:00 -2°C° 0.2 mm 1 mps 617 mmHg 50%
    11:00 -1°C° 0.2 mm 1 mps 616 mmHg 56%
    12:00 -3°C° 0.2 mm 2 mps 616 mmHg 61%
    13:00 -3°C° 0.7 mm 2 mps 615 mmHg 67%
    14:00 -3°C° 0.7 mm 2 mps 615 mmHg 73%
    15:00 -3°C° 0.7 mm 2 mps 614 mmHg 80%
    16:00 -4°C° 0.3 mm 2 mps 613 mmHg 82%
    17:00 -5°C° 0.3 mm 2 mps 612 mmHg 85%
    18:00 -3°C° 0.3 mm 1 mps 612 mmHg 87%
    19:00 -3°C° 0.4 mm 1 mps 611 mmHg 89%
    20:00 -3°C° 0.4 mm 1 mps 611 mmHg 91%
    21:00 -4°C° 0.4 mm 1 mps 610 mmHg 93%
    22:00 -6°C° 1 mm 2 mps 610 mmHg 94%
    23:00 -6°C° 1 mm 2 mps 609 mmHg 94%

    23 January, Wednesday

    Time Temperature Precipitation Wind Pressure Humidity
    00:00 -7°C° 1 mm 3 mps 609 mmHg 94%
    01:00 -8°C° 1.1 mm 3 mps 608 mmHg 94%
    02:00 -9°C° 1.1 mm 3 mps 607 mmHg 93%
    03:00 -10°C° 1.1 mm 3 mps 607 mmHg 92%
    04:00 -11°C° 0.7 mm 4 mps 606 mmHg 91%
    05:00 -12°C° 0.7 mm 4 mps 606 mmHg 91%
    06:00 -14°C° 0.7 mm 5 mps 606 mmHg 90%
    07:00 -15°C° 0.4 mm 6 mps 606 mmHg 88%
    08:00 -15°C° 0.4 mm 6 mps 606 mmHg 86%
    09:00 -15°C° 0.4 mm 7 mps 606 mmHg 85%
    10:00 -14°C° 0.1 mm 7 mps 606 mmHg 82%
    11:00 -14°C° 0.1 mm 7 mps 606 mmHg 80%
    12:00 -13°C° 0.1 mm 7 mps 606 mmHg 78%
    13:00 -15°C° 0.1 mm 8 mps 606 mmHg 79%
    14:00 -15°C° 0.1 mm 8 mps 606 mmHg 80%
    15:00 -15°C° 0.1 mm 8 mps 606 mmHg 81%
    16:00 -15°C° 0.1 mm 8 mps 606 mmHg 82%
    17:00 -16°C° 0.1 mm 8 mps 606 mmHg 84%
    18:00 -15°C° 0.1 mm 7 mps 606 mmHg 85%
    19:00 -15°C° 0.1 mm 7 mps 606 mmHg 85%
    20:00 -15°C° 0.1 mm 7 mps 607 mmHg 85%
    21:00 -15°C° 0.1 mm 7 mps 607 mmHg 86%
    22:00 -16°C° 0 mm 6 mps 607 mmHg 85%
    23:00 -16°C° 0 mm 6 mps 607 mmHg 85%

    24 January, Thursday

    Time Temperature Precipitation Wind Pressure Humidity
    00:00 -15°C° 0 mm 5 mps 606 mmHg 85%
    01:00 -17°C° 0 mm 5 mps 606 mmHg 85%
    02:00 -17°C° 0 mm 5 mps 606 mmHg 85%
    03:00 -17°C° 0 mm 4 mps 605 mmHg 85%
    04:00 -16°C° 0 mm 4 mps 606 mmHg 86%
    05:00 -17°C° 0 mm 5 mps 606 mmHg 86%
    06:00 -17°C° 0 mm 5 mps 606 mmHg 86%
    07:00 -15°C° 0 mm 5 mps 607 mmHg 84%
    08:00 -14°C° 0 mm 5 mps 607 mmHg 82%
    09:00 -14°C° 0 mm 5 mps 608 mmHg 80%
    10:00 -13°C° 0 mm 5 mps 608 mmHg 78%
    11:00 -11°C° 0 mm 5 mps 609 mmHg 76%
    12:00 -10°C° 0 mm 5 mps 610 mmHg 74%
    13:00 -11°C° 0 mm 5 mps 610 mmHg 76%
    14:00 -11°C° 0 mm 5 mps 609 mmHg 78%
    15:00 -11°C° 0 mm 5 mps 609 mmHg 79%
    16:00 -12°C° 0 mm 5 mps 610 mmHg 82%
    17:00 -12°C° 0 mm 4 mps 610 mmHg 84%
    18:00 -15°C° 0 mm 4 mps 610 mmHg 87%
    19:00 -15°C° 0 mm 4 mps 610 mmHg 87%
    20:00 -15°C° 0 mm 4 mps 611 mmHg 86%
    21:00 -15°C° 0 mm 4 mps 611 mmHg 86%
    22:00 -15°C° 0 mm 4 mps 612 mmHg 84%
    23:00 -15°C° 0 mm 4 mps 612 mmHg 82%
    Show more